Regional Weather Roundup
Issued by NWS

Home | Current Version | Previous Version | Text Only | Print | Product List | Glossary Off
Versions: 1 2 3 4 5 6 7 8 9 10 11 12 13 14 15 16 17 18 19 20 21 22 23 24 25 26 27 28 29 30 31 32 33 34 35 36 37 38 39 40 41 42 43 44 45 46 47 48 49 50

000
ASUS43 KFSD 151610
RWRSD

WEATHER ROUNDUP FOR SOUTH DAKOTA
NATIONAL WEATHER SERVICE SIOUX FALLS SD
1100 AM CDT TUE APR 15 2014

NOTE: "FAIR" INDICATES FEW OR NO CLOUDS BELOW 12,000 FEET WITH NO
SIGNIFICANT WEATHER AND/OR OBSTRUCTIONS TO VISIBILITY.


SDZ001>005-009-010-012>017-151700-
NORTHWEST AND NORTH CENTRAL SOUTH DAKOTA

CITY           SKY/WX    TMP DP  RH WIND       PRES   REMARKS
BUFFALO          N/A     38  18  44 S12       29.65F
FAITH            N/A     36  18  48 SE18      29.76F
MOBRIDGE       PTSUNNY   35  16  45 SE24      29.87F WCI  23
$$

SDZ012>016-024>037-041>051-057-063-072>074-151700-
SOUTHWEST AND SOUTH CENTRAL SOUTH DAKOTA

CITY           SKY/WX    TMP DP  RH WIND       PRES   REMARKS
RAPID CTY ARPT CLOUDY    44  24  45 SE6       29.75F
PIERRE         SUNNY     39  17  41 SE23G32   29.88F
CUSTER         CLOUDY    44  15  31 W9        29.77F
PHILIP         PTSUNNY   41  21  44 SE8       29.80F
PINE RIDGE     MOSUNNY   51  23  33 W14       29.80F
SPEARFISH      FAIR      54  18  24 W12       29.73F
WINNER         FAIR      44  18  35 SE17      29.90F
$$

SDZ004>011-016>023-039-040-151700-
NORTHEAST SOUTH DAKOTA

CITY           SKY/WX    TMP DP  RH WIND       PRES   REMARKS
ABERDEEN       MOSUNNY   31  11  43 S15       30.05F WCI  20
WATERTOWN      SUNNY     28  12  51 S9        30.06F WCI  19
SISSETON         N/A     24  14  65 S9        30.11F WCI  14
$$

SDZ017-020-022-023-036>040-048>070-151700-
SOUTHEAST SOUTH DAKOTA

CITY           SKY/WX    TMP DP  RH WIND       PRES   REMARKS
SIOUX FALLS    SUNNY     32  14  47 S8        30.12F WCI  25
HURON          SUNNY     34  18  52 SE10G21   30.04F WCI  26
CHAMBERLAIN      N/A     39  17  41 SE24G31   29.95F
MITCHELL       SUNNY     35  21  56 SE16G23   30.07F WCI  25
YANKTON        SUNNY     34  19  55 SE14G21   30.11F WCI  24
$$

ABBREVIATIONS USED IN REMARKS
   TC - TEMPERATURE IN CELSIUS
  WCI - WIND CHILL INDEX
   HX - HEAT INDEX
  VSB - VISIBILITY




USA.gov is the U.S. government's official web portal to all federal, state and local government web resources and services.